| time (UTC) | temp F | wind direction | speed MPH | gust MPH | rain 1hr in | rain 24hr in | rain mn in | humidity % | barometer mb |
| 20260505024749 | 65 | 222 | 1.0 | 1.0 | 0.00 | 0.00 | 0.00 | 61 | 1011.0 |
| 20260505023749 | 66 | 218 | 0.0 | 0.0 | 0.00 | 0.00 | 0.00 | 60 | 1010.9 |
| 20260505022749 | 66 | 202 | 2.0 | 2.0 | 0.00 | 0.00 | 0.00 | 59 | 1010.7 |
| 20260505021748 | 67 | 218 | 1.0 | 2.0 | 0.00 | 0.00 | 0.00 | 58 | 1011.1 |
| 20260505020747 | 67 | 221 | 0.0 | 1.0 | 0.00 | 0.00 | 0.00 | 57 | 1010.8 |
| 20260505015746 | 68 | 180 | 2.0 | 2.0 | 0.00 | 0.00 | 0.00 | 55 | 1010.7 |
| 20260505014745 | 68 | 168 | 1.0 | 1.0 | 0.00 | 0.00 | 0.00 | 53 | 1010.6 |
| 20260505013745 | 69 | 245 | 4.0 | 6.0 | 0.00 | 0.00 | 0.00 | 52 | 1010.5 |
| 20260505012740 | 69 | 167 | 2.0 | 3.0 | 0.00 | 0.00 | 0.00 | 51 | 1010.4 |
| 20260505011739 | 69 | 200 | 1.0 | 1.0 | 0.00 | 0.00 | 0.00 | 52 | 1010.4 |
| 20260505010738 | 70 | 183 | 1.0 | 1.0 | 0.00 | 0.00 | 0.00 | 51 | 1010.3 |
| 20260505005737 | 70 | 168 | 3.0 | 4.0 | 0.00 | 0.00 | 0.00 | 50 | 1010.1 |
| 20260505004737 | 71 | 220 | 1.0 | 1.0 | 0.00 | 0.00 | 0.00 | 49 | 1010.2 |
| 20260505003736 | 71 | 166 | 1.0 | 2.0 | 0.00 | 0.00 | 0.00 | 49 | 1010.0 |
| 20260505002736 | 71 | 131 | 3.0 | 4.0 | 0.00 | 0.00 | 0.00 | 48 | 1009.9 |
| 20260505001737 | 71 | 227 | 2.0 | 3.0 | 0.00 | 0.00 | 0.00 | 48 | 1009.9 |
| 20260505000736 | 72 | 205 | 2.0 | 2.0 | 0.00 | 0.00 | 0.00 | 47 | 1009.8 |
| 20260504235731 | 72 | 270 | 3.0 | 4.0 | 0.00 | 0.00 | 0.00 | 46 | 1009.9 |
| 20260504234730 | 72 | 260 | 3.0 | 6.0 | 0.00 | 0.00 | 0.00 | 46 | 1009.9 |
| 20260504233729 | 72 | 194 | 3.0 | 6.0 | 0.00 | 0.00 | 0.00 | 46 | 1009.7 |
| 20260504232728 | 72 | 171 | 2.0 | 3.0 | 0.00 | 0.00 | 0.00 | 46 | 1009.8 |
| 20260504231728 | 73 | 156 | 2.0 | 2.0 | 0.00 | 0.00 | 0.00 | 45 | 1009.7 |
| 20260504230726 | 73 | 240 | 4.0 | 4.0 | 0.00 | 0.00 | 0.00 | 44 | 1009.6 |
| 20260504225723 | 73 | 156 | 4.0 | 7.0 | 0.00 | 0.00 | 0.00 | 43 | 1009.5 |
| 20260504224722 | 73 | 168 | 3.0 | 7.0 | 0.00 | 0.00 | 0.00 | 43 | 1009.7 |
| 20260504223722 | 74 | 161 | 6.0 | 8.0 | 0.00 | 0.00 | 0.00 | 43 | 1009.2 |
| 20260504222720 | 75 | 153 | 3.0 | 7.0 | 0.00 | 0.00 | 0.00 | 43 | 1009.5 |
| 20260504221720 | 75 | 138 | 3.0 | 6.0 | 0.00 | 0.00 | 0.00 | 41 | 1009.2 |
| 20260504220719 | 75 | 247 | 5.0 | 7.0 | 0.00 | 0.00 | 0.00 | 41 | 1009.4 |
| 20260504215720 | 75 | 126 | 3.0 | 6.0 | 0.00 | 0.00 | 0.00 | 41 | 1009.4 |
| 20260504214718 | 75 | 218 | 2.0 | 2.0 | 0.00 | 0.00 | 0.00 | 41 | 1009.4 |
| 20260504213718 | 75 | 176 | 2.0 | 4.0 | 0.00 | 0.00 | 0.00 | 40 | 1009.1 |
| 20260504212717 | 75 | 190 | 6.0 | 10.0 | 0.00 | 0.00 | 0.00 | 41 | 1009.5 |
| 20260504211716 | 75 | 161 | 5.0 | 8.0 | 0.00 | 0.00 | 0.00 | 41 | 1009.6 |
| 20260504210716 | 75 | 271 | 2.0 | 3.0 | 0.00 | 0.00 | 0.00 | 41 | 1009.6 |
| 20260504205716 | 77 | 182 | 2.0 | 3.0 | 0.00 | 0.00 | 0.00 | 39 | 1009.2 |
| 20260504204712 | 78 | 285 | 1.0 | 2.0 | 0.00 | 0.00 | 0.00 | 40 | 1009.4 |
| 20260504203708 | 77 | 160 | 3.0 | 4.0 | 0.00 | 0.00 | 0.00 | 40 | 1009.4 |
| 20260504202705 | 78 | 207 | 2.0 | 3.0 | 0.00 | 0.00 | 0.00 | 38 | 1009.5 |
| 20260504201700 | 77 | 166 | 3.0 | 4.0 | 0.00 | 0.00 | 0.00 | 38 | 1009.5 |
| 20260504200655 | 78 | 236 | 3.0 | 3.0 | 0.00 | 0.00 | 0.00 | 37 | 1009.8 |
| 20260504195653 | 76 | 153 | 2.0 | 4.0 | 0.00 | 0.00 | 0.00 | 40 | 1009.8 |
| 20260504194652 | 77 | 157 | 2.0 | 4.0 | 0.00 | 0.00 | 0.00 | 45 | 1009.9 |
| 20260504193650 | 77 | 160 | 2.0 | 4.0 | 0.00 | 0.00 | 0.00 | 39 | 1010.2 |
| 20260504192646 | 77 | 211 | 3.0 | 4.0 | 0.00 | 0.00 | 0.00 | 38 | 1010.4 |
| 20260504191642 | 78 | 298 | 5.0 | 8.0 | 0.00 | 0.00 | 0.00 | 36 | 1010.4 |
| 20260504190640 | 74 | 209 | 0.0 | 1.0 | 0.00 | 0.00 | 0.00 | 44 | 1010.6 |
| 20260504185639 | 76 | 212 | 1.0 | 2.0 | 0.00 | 0.00 | 0.00 | 43 | 1010.9 |
| 20260504184638 | 76 | 163 | 5.0 | 8.0 | 0.00 | 0.00 | 0.00 | 38 | 1011.0 |
| 20260504183636 | 76 | 184 | 2.0 | 3.0 | 0.00 | 0.00 | 0.00 | 42 | 1011.4 |
| 20260504182631 | 75 | 287 | 1.0 | 2.0 | 0.00 | 0.00 | 0.00 | 40 | 1011.3 |
| 20260504181631 | 75 | 224 | 2.0 | 2.0 | 0.00 | 0.00 | 0.00 | 42 | 1011.4 |
| 20260504180628 | 74 | 166 | 3.0 | 6.0 | 0.00 | 0.00 | 0.00 | 41 | 1011.7 |
| 20260504175629 | 74 | 220 | 2.0 | 3.0 | 0.00 | 0.00 | 0.00 | 39 | 1011.9 |
| 20260504174624 | 76 | 92 | 3.0 | 3.0 | 0.00 | 0.00 | 0.00 | 42 | 1012.0 |
| 20260504173623 | 73 | 169 | 4.0 | 6.0 | 0.00 | 0.00 | 0.00 | 40 | 1012.0 |
| 20260504172622 | 74 | 191 | 0.0 | 1.0 | 0.00 | 0.00 | 0.00 | 47 | 1012.1 |
| 20260504171621 | 73 | 101 | 3.0 | 4.0 | 0.00 | 0.00 | 0.00 | 47 | 1012.4 |
| 20260504170620 | 72 | 208 | 1.0 | 2.0 | 0.00 | 0.00 | 0.00 | 50 | 1012.7 |
| 20260504150554 | 69 | 170 | 1.0 | 2.0 | 0.00 | 0.00 | 0.00 | 45 | 1013.9 |
| 20260504140545 | 66 | 197 | 1.0 | 2.0 | 0.00 | 0.00 | 0.00 | 48 | 1014.1 |
| 20260504130533 | 59 | 163 | 1.0 | 2.0 | 0.00 | 0.00 | 0.00 | 60 | 1014.4 |
| 20260504110514 | 44 | 177 | 0.0 | 0.0 | 0.00 | 0.00 | 0.00 | 93 | 1015.3 |
| 20260504100505 | 42 | 217 | 0.0 | 0.0 | 0.00 | 0.00 | 0.00 | 93 | 1014.9 |
| 20260504081441 | 43 | 219 | 0.0 | 0.0 | 0.00 | 0.00 | 0.00 | 94 | 1015.4 |
| 20260504080440 | 43 | 228 | 0.0 | 0.0 | 0.00 | 0.00 | 0.00 | 94 | 1015.1 |
| 20260504050409 | 38 | 220 | 0.0 | 0.0 | 0.00 | 0.00 | 0.00 | 93 | 1015.7 |
| 20260504045407 | 37 | 221 | 0.0 | 0.0 | 0.00 | 0.00 | 0.00 | 92 | 1015.9 |
| 20260504044408 | 37 | 223 | 0.0 | 0.0 | 0.00 | 0.00 | 0.00 | 92 | 1016.1 |
| 20260504043407 | 37 | 219 | 0.0 | 0.0 | 0.00 | 0.00 | 0.00 | 91 | 1016.0 |
| 20260504042407 | 37 | 222 | 0.0 | 0.0 | 0.00 | 0.00 | 0.00 | 91 | 1015.9 |
| 20260504041406 | 37 | 220 | 0.0 | 0.0 | 0.00 | 0.00 | 0.00 | 91 | 1015.9 |
| 20260504040405 | 38 | 214 | 0.0 | 0.0 | 0.00 | 0.00 | 0.00 | 91 | 1015.8 |
| 20260504035405 | 38 | 205 | 0.0 | 0.0 | 0.00 | 0.00 | 0.00 | 90 | 1015.8 |
| 20260504034405 | 39 | 228 | 0.0 | 0.0 | 0.00 | 0.00 | 0.00 | 89 | 1015.8 |
| 20260504033400 | 39 | 221 | 0.0 | 0.0 | 0.00 | 0.00 | 0.00 | 89 | 1016.0 |
| 20260504032359 | 39 | 214 | 0.0 | 0.0 | 0.00 | 0.00 | 0.00 | 88 | 1016.0 |
| 20260504031358 | 40 | 227 | 0.0 | 0.0 | 0.00 | 0.00 | 0.00 | 87 | 1015.8 |
| 20260504030358 | 40 | 219 | 0.0 | 0.0 | 0.00 | 0.00 | 0.00 | 85 | 1015.9 |
| 20260504025357 | 41 | 231 | 1.0 | 1.0 | 0.00 | 0.00 | 0.00 | 84 | 1015.8 |